Weather History for Wendover, UT

Change the Weather History Date:

Friday, September 6, 2013

  Actual Average Record
Temperature  
Mean Temperature 76 °F -  
Max Temperature 82 °F 82 °F 94 °F (1977)
Min Temperature 69 °F 59 °F 46 °F (2010)
Cooling Degree Days 10    
Growing Degree Days 26 (Base 50)    
Moisture  
Dew Point 53 °F    
Average Humidity 50    
Maximum Humidity 64    
Minimum Humidity 35    
Precipitation  
Precipitation 0.00 in - - ()
Sea Level Pressure  
Sea Level Pressure 30.08 in    
Wind  
Wind Speed 7 mph (NE)    
Max Wind Speed 28 mph    
Max Gust Speed 47 mph    
Visibility 10 miles    
Events Thunderstorm    
Averages and records for this station are not official NWS values.
T = Trace of Precipitation, MM = Missing Value Source: NWS Daily Summary

Daily Weather History Graph

Daily Weather History Graph

Search for Another Location

Airport:

Trip Planner

Search our weather history database for the weather conditions in past years. The results will help you decide how hot, cold, wet, or windy it might be!

Date:

Astronomy

Sep. 06, 2013 Rise Set
Actual Time 7:08 AM MDT 7:59 PM MDT
Civil Twilight 6:40 AM MDT 8:27 PM MDT
Nautical Twilight 6:07 AM MDT 9:00 PM MDT
Astronomical Twilight 5:33 AM MDT 9:34 PM MDT
Moon 8:25 AM MDT (9/6) 8:25 PM MDT (9/6)
Length of Visible Light 13h 46m
Length of Day
12h 51m
New Moon, 2% of the Moon is Illuminated
Sep 6
New Moon
Sep 12
First Quarter
Sep 19
Full
Sep 26
Last Quarter
Oct 4
New

Hourly Weather History & Observations

Time (MDT) Temp. Heat Index Dew Point Humidity Pressure Visibility Wind Dir Wind Speed Gust Speed Precip Events Conditions
12:15 AM 75.2 °F - 51.8 °F 44% 30.04 in 10.0 mi West 4.6 mph - N/A   Clear
12:35 AM 73.4 °F - 51.8 °F 47% 30.04 in 10.0 mi Calm Calm - N/A   Clear
12:55 AM 73.4 °F - 51.8 °F 47% 30.04 in 10.0 mi NE 5.8 mph - N/A   Partly Cloudy
1:15 AM 73.4 °F - 53.6 °F 50% 30.05 in 10.0 mi ENE 6.9 mph - N/A   Clear
1:35 AM 71.6 °F - 53.6 °F 53% 30.05 in 10.0 mi NE 5.8 mph - N/A   Clear
1:55 AM 71.6 °F - 51.8 °F 50% 30.05 in 10.0 mi NNE 5.8 mph - N/A   Clear
2:15 AM 73.4 °F - 51.8 °F 47% 30.05 in 10.0 mi Calm Calm - N/A   Clear
2:35 AM 73.4 °F - 50.0 °F 44% 30.05 in 10.0 mi Calm Calm - N/A   Clear
2:55 AM 71.6 °F - 51.8 °F 50% 30.05 in 10.0 mi Calm Calm - N/A   Clear
3:15 AM 71.6 °F - 51.8 °F 50% 30.05 in 10.0 mi NE 5.8 mph - N/A   Clear
3:35 AM 71.6 °F - 51.8 °F 50% 30.05 in 10.0 mi SSE 4.6 mph - N/A   Clear
3:55 AM 71.6 °F - 51.8 °F 50% 30.05 in 10.0 mi NE 6.9 mph - N/A   Clear
4:15 AM 71.6 °F - 51.8 °F 50% 30.05 in 10.0 mi East 9.2 mph - N/A   Clear
4:35 AM 69.8 °F - 51.8 °F 53% 30.06 in 10.0 mi NE 10.4 mph - N/A   Clear
4:55 AM 69.8 °F - 51.8 °F 53% 30.06 in 10.0 mi NE 10.4 mph - N/A   Clear
5:15 AM 69.8 °F - 51.8 °F 53% 30.06 in 10.0 mi NE 10.4 mph - N/A   Clear
5:35 AM 69.8 °F - 51.8 °F 53% 30.06 in 10.0 mi ENE 10.4 mph - N/A   Clear
5:55 AM 69.8 °F - 51.8 °F 53% 30.06 in 10.0 mi NE 10.4 mph - N/A   Clear
6:15 AM 69.8 °F - 51.8 °F 53% 30.07 in 10.0 mi NE 11.5 mph - N/A   Clear
6:35 AM 69.8 °F - 51.8 °F 53% 30.07 in 10.0 mi NE 10.4 mph - N/A   Clear
6:55 AM 69.8 °F - 51.8 °F 53% 30.08 in 10.0 mi ENE 9.2 mph - N/A   Clear
7:15 AM 69.8 °F - 51.8 °F 53% 30.09 in 10.0 mi ENE 8.1 mph - N/A   Clear
7:35 AM 69.8 °F - 51.8 °F 53% 30.09 in 10.0 mi NNE 5.8 mph - N/A   Clear
7:55 AM 69.8 °F - 51.8 °F 53% 30.10 in 10.0 mi NNE 4.6 mph - N/A   Clear
8:15 AM 69.8 °F - 53.6 °F 56% 30.10 in 10.0 mi ENE 5.8 mph - N/A   Clear
8:35 AM 69.8 °F - 53.6 °F 56% 30.10 in 10.0 mi East 5.8 mph - N/A   Clear
8:55 AM 69.8 °F - 53.6 °F 56% 30.10 in 10.0 mi NE 5.8 mph - N/A   Clear
9:15 AM 69.8 °F - 53.6 °F 56% 30.11 in 10.0 mi ENE 6.9 mph - N/A   Clear
9:35 AM 71.6 °F - 53.6 °F 53% 30.12 in 10.0 mi ENE 5.8 mph - N/A   Clear
9:55 AM 71.6 °F - 53.6 °F 53% 30.12 in 10.0 mi NE 6.9 mph - N/A   Clear
10:15 AM 73.4 °F - 51.8 °F 47% 30.12 in 10.0 mi ENE 6.9 mph - N/A   Clear
10:35 AM 73.4 °F - 51.8 °F 47% 30.12 in 10.0 mi ENE 6.9 mph - N/A   Clear
10:55 AM 75.2 °F - 51.8 °F 44% 30.11 in 10.0 mi ENE 6.9 mph - N/A   Clear
11:15 AM 77.0 °F - 51.8 °F 41% 30.11 in 10.0 mi East 10.4 mph - N/A   Clear
11:35 AM 78.8 °F - 51.8 °F 39% 30.11 in 10.0 mi East 11.5 mph - N/A   Clear
11:55 AM 78.8 °F - 51.8 °F 39% 30.11 in 10.0 mi East 11.5 mph - N/A   Clear
12:15 PM 80.6 °F - 51.8 °F 37% 30.11 in 10.0 mi ENE 10.4 mph - N/A   Clear
12:35 PM 82.4 °F - 51.8 °F 35% 30.09 in 10.0 mi East 11.5 mph - N/A   Clear
12:55 PM 80.6 °F - 51.8 °F 37% 30.09 in 10.0 mi East 10.4 mph - N/A Thunderstorm Clear
1:15 PM 80.6 °F - 51.8 °F 37% 30.08 in 10.0 mi East 9.2 mph - N/A Thunderstorm Clear
1:35 PM 80.6 °F 80.3 °F 53.6 °F 39% 30.06 in 10.0 mi East 11.5 mph - N/A Thunderstorm Clear
1:55 PM 80.6 °F 80.3 °F 53.6 °F 39% 30.07 in 10.0 mi ENE 9.2 mph - N/A Thunderstorm Clear
2:15 PM 80.6 °F - 51.8 °F 37% 30.09 in 10.0 mi West 18.4 mph 28.8 mph N/A Thunderstorm Scattered Clouds
2:35 PM 69.8 °F - 57.2 °F 64% 30.11 in 8.0 mi NW 27.6 mph 47.2 mph N/A Thunderstorm Thunderstorm
2:55 PM 75.2 °F - 57.2 °F 53% 30.11 in 10.0 mi North 4.6 mph - N/A Thunderstorm Scattered Clouds
3:15 PM 78.8 °F - 57.2 °F 47% 30.10 in 10.0 mi NNW 5.8 mph - N/A   Clear
3:35 PM 78.8 °F - 59.0 °F 51% 30.08 in 10.0 mi NE 11.5 mph - N/A Thunderstorm Clear
3:55 PM 78.8 °F - 55.4 °F 44% 30.07 in 10.0 mi NNE 13.8 mph - N/A Thunderstorm Clear
5:15 PM 73.4 °F - 55.4 °F 53% 30.04 in 10.0 mi WNW 6.9 mph - N/A   Partly Cloudy
5:35 PM 77.0 °F - 53.6 °F 44% 30.05 in 10.0 mi NNW 3.5 mph - N/A   Partly Cloudy
5:55 PM 75.2 °F - 55.4 °F 50% 30.05 in 10.0 mi West 3.5 mph - N/A   Clear
6:15 PM 77.0 °F - 51.8 °F 41% 30.06 in 10.0 mi Calm Calm - N/A   Scattered Clouds
6:35 PM 75.2 °F - 55.4 °F 50% 30.07 in 10.0 mi ESE 8.1 mph - N/A   Mostly Cloudy
6:55 PM 69.8 °F - 57.2 °F 64% 30.09 in 8.0 mi WNW 24.2 mph - N/A Thunderstorm Thunderstorm
7:15 PM 71.6 °F - 57.2 °F 60% 30.07 in 10.0 mi NNW 15.0 mph - N/A   Scattered Clouds
7:35 PM 73.4 °F - 51.8 °F 47% 30.06 in 10.0 mi North 9.2 mph - N/A Thunderstorm Partly Cloudy
7:55 PM 71.6 °F - 53.6 °F 53% 30.06 in 10.0 mi NE 5.8 mph - N/A   Mostly Cloudy
8:15 PM 71.6 °F - 55.4 °F 57% 30.05 in 10.0 mi NE 15.0 mph - N/A   Overcast
8:35 PM 69.8 °F - 55.4 °F 60% 30.06 in 10.0 mi East 11.5 mph - N/A   Scattered Clouds
8:55 PM 69.8 °F - 55.4 °F 60% 30.10 in 10.0 mi WNW 3.5 mph 18.4 mph N/A   Mostly Cloudy
9:15 PM 69.8 °F - 57.2 °F 64% 30.11 in 10.0 mi WNW 5.8 mph - N/A   Partly Cloudy
9:35 PM 69.8 °F - 57.2 °F 64% 30.12 in 10.0 mi WNW 9.2 mph - N/A   Clear
9:55 PM 71.6 °F - 51.8 °F 50% 30.12 in 10.0 mi NW 12.7 mph - N/A   Scattered Clouds
10:15 PM 71.6 °F - 51.8 °F 50% 30.13 in 10.0 mi NW 11.5 mph - N/A   Partly Cloudy
10:35 PM 71.6 °F - 51.8 °F 50% 30.13 in 10.0 mi NNE 5.8 mph - N/A   Clear
10:55 PM 71.6 °F - 50.0 °F 46% 30.14 in 10.0 mi NW 11.5 mph - N/A   Clear
11:15 PM 71.6 °F - 50.0 °F 46% 30.13 in 10.0 mi NW 11.5 mph - N/A   Clear
11:35 PM 69.8 °F - 51.8 °F 53% 30.13 in 10.0 mi WNW 6.9 mph - N/A   Scattered Clouds
11:55 PM 69.8 °F - 51.8 °F 53% 30.12 in 10.0 mi NW 10.4 mph - N/A   Mostly Cloudy